Weather History for Zapata, TX

Change the Weather History Date:

Wednesday, June 5, 2013

  Actual Average (KLRD) Record (KLRD)
Temperature  
Mean Temperature 86 °F 86 °F  
Max Temperature 99 °F 97 °F 111 °F (1916)
Min Temperature 72 °F 75 °F 60 °F (1920)
Degree Days  
Heating Degree Days 0 0  
Month to date heating degree days 0  
Since 1 June heating degree days 0  
Since 1 July heating degree days 926  
Cooling Degree Days 20 21  
Month to date cooling degree days 105  
Year to date cooling degree days 1248  
Since 1 June cooling degree days 105  
Growing Degree Days 36 (Base 50)    
Moisture  
Dew Point 62 °F    
Average Humidity 52    
Maximum Humidity 91    
Minimum Humidity 16    
Precipitation  
Precipitation 0.00 in 0.07 in 1.88 in (1979)
Month to date precipitation 0.34  
Year to date precipitation 7.21  
Sea Level Pressure  
Sea Level Pressure 29.79 in    
Wind  
Wind Speed 8 mph (ESE)    
Max Wind Speed 18 mph    
Max Gust Speed 25 mph    
Visibility 10 miles    
Events      
T = Trace of Precipitation, MM = Missing Value Source: NWS Daily Summary

Daily Weather History Graph

Daily Weather History Graph

Search for Another Location

Airport:

Trip Planner

Search our weather history database for the weather conditions in past years. The results will help you decide how hot, cold, wet, or windy it might be!

Date:

Astronomy

Jun. 05, 2013 Rise Set
Actual Time 6:42 AM CDT 8:28 PM CDT
Civil Twilight 6:16 AM CDT 8:55 PM CDT
Nautical Twilight 5:44 AM CDT 9:26 PM CDT
Astronomical Twilight 5:11 AM CDT 9:59 PM CDT
Moon 4:35 AM CDT (6/5) 6:06 PM CDT (6/5)
Length of Visible Light 14h 38m
Length of Day
13h 46m
Waning Crescent, 8% of the Moon is Illuminated
Jun 5
Waning Crescent
Jun 8
New
Jun 16
First Quarter
Jun 23
Full
Jun 29
Last Quarter

Hourly Weather History & Observations

Time (CDT) Temp. Heat Index Dew Point Humidity Pressure Visibility Wind Dir Wind Speed Gust Speed Precip Events Conditions
12:15 AM 80.6 °F 82.9 °F 66.7 °F 63% 29.84 in 10.0 mi ESE 8.1 mph - N/A   Clear
12:35 AM 79.7 °F - 67.1 °F 65% 29.84 in 10.0 mi ESE 4.6 mph - N/A   Clear
12:55 AM 79.7 °F - 67.5 °F 66% 29.85 in 10.0 mi ESE 8.1 mph - N/A   Clear
1:15 AM 79.2 °F - 67.6 °F 68% 29.85 in 10.0 mi ESE 6.9 mph - N/A   Clear
1:35 AM 78.8 °F - 67.6 °F 68% 29.84 in 10.0 mi SE 6.9 mph - N/A   Clear
1:55 AM 78.1 °F - 67.6 °F 70% 29.84 in 10.0 mi SE 8.1 mph - N/A   Clear
2:15 AM 77.5 °F - 68.0 °F 72% 29.83 in 10.0 mi SE 8.1 mph - N/A   Clear
2:35 AM 77.2 °F - 68.2 °F 74% 29.83 in 10.0 mi SE 8.1 mph - N/A   Clear
2:55 AM 76.3 °F - 68.2 °F 76% 29.82 in 10.0 mi SE 6.9 mph - N/A   Clear
3:15 AM 75.9 °F - 68.4 °F 77% 29.82 in 10.0 mi SE 8.1 mph - N/A   Clear
3:35 AM 75.7 °F - 69.1 °F 80% 29.82 in 10.0 mi SE 8.1 mph - N/A   Clear
3:55 AM 75.4 °F - 69.3 °F 81% 29.82 in 10.0 mi SE 8.1 mph - N/A   Clear
4:15 AM 75.4 °F - 69.1 °F 81% 29.82 in 10.0 mi SE 5.8 mph - N/A   Clear
4:35 AM 75.4 °F - 68.9 °F 80% 29.81 in 10.0 mi SE 8.1 mph - N/A   Clear
4:55 AM 74.8 °F - 68.4 °F 80% 29.81 in 10.0 mi SE 5.8 mph - N/A   Clear
5:15 AM 74.3 °F - 68.2 °F 81% 29.81 in 10.0 mi SE 5.8 mph - N/A   Clear
5:35 AM 73.9 °F - 68.2 °F 82% 29.81 in 10.0 mi SE 5.8 mph - N/A   Clear
5:55 AM 73.6 °F - 68.2 °F 83% 29.81 in 10.0 mi SE 4.6 mph - N/A   Clear
6:15 AM 73.2 °F - 68.2 °F 84% 29.80 in 10.0 mi SE 4.6 mph - N/A   Clear
6:35 AM 72.9 °F - 69.3 °F 88% 29.80 in 10.0 mi SE 3.5 mph - N/A   Clear
6:55 AM 72.5 °F - 69.4 °F 90% 29.80 in 10.0 mi ESE 3.5 mph - N/A   Clear
7:15 AM 72.7 °F - 69.8 °F 91% 29.81 in 10.0 mi ESE 3.5 mph - N/A   Clear
7:35 AM 73.9 °F - 70.7 °F 90% 29.81 in 10.0 mi SE 5.8 mph - N/A   Clear
7:55 AM 75.6 °F - 70.2 °F 83% 29.82 in 10.0 mi SE 8.1 mph - N/A   Clear
8:15 AM 77.0 °F - 69.8 °F 78% 29.82 in 10.0 mi SE 8.1 mph 16.1 mph N/A   Clear
8:35 AM 78.3 °F - 69.3 °F 74% 29.82 in 10.0 mi SE 13.8 mph 18.4 mph N/A   Clear
8:55 AM 79.3 °F - 68.9 °F 70% 29.82 in 10.0 mi SSE 9.2 mph 18.4 mph N/A   Clear
9:15 AM 80.2 °F 82.8 °F 68.0 °F 66% 29.82 in 10.0 mi SE 9.2 mph - N/A   Clear
9:35 AM 81.5 °F 84.1 °F 67.5 °F 62% 29.83 in 10.0 mi SSE 10.4 mph - N/A   Clear
9:55 AM 82.4 °F 84.6 °F 66.4 °F 58% 29.83 in 10.0 mi SSE 6.9 mph - N/A   Clear
10:15 AM 83.3 °F 85.7 °F 66.6 °F 57% 29.84 in 10.0 mi SE 6.9 mph - N/A   Clear
10:35 AM 84.6 °F 86.8 °F 66.4 °F 54% 29.84 in 10.0 mi SSE 5.8 mph - N/A   Clear
10:55 AM 85.1 °F 87.1 °F 65.5 °F 52% 29.84 in 10.0 mi SSE 5.8 mph - N/A   Clear
11:15 AM 86.7 °F 88.4 °F 64.8 °F 48% 29.83 in 10.0 mi SSE 4.6 mph - N/A   Clear
11:35 AM 87.8 °F 89.1 °F 64.0 °F 45% 29.83 in 10.0 mi SSE 5.8 mph - N/A   Clear
11:55 AM 88.5 °F 88.6 °F 61.5 °F 40% 29.83 in 10.0 mi ESE 4.6 mph - N/A   Clear
12:15 PM 90.3 °F 90.2 °F 61.0 °F 37% 29.83 in 10.0 mi East 6.9 mph - N/A   Clear
12:35 PM 91.0 °F 90.5 °F 59.9 °F 35% 29.82 in 10.0 mi ESE 6.9 mph - N/A   Clear
12:55 PM 91.6 °F 89.8 °F 56.3 °F 30% 29.81 in 10.0 mi SE 9.2 mph 21.9 mph N/A   Clear
1:15 PM 93.4 °F 91.0 °F 53.6 °F 26% 29.81 in 10.0 mi ESE 10.4 mph - N/A   Clear
1:35 PM 93.7 °F 91.7 °F 55.0 °F 27% 29.79 in 10.0 mi SSE 9.2 mph - N/A   Clear
1:55 PM 94.6 °F 92.3 °F 53.8 °F 25% 29.79 in 10.0 mi SSE 4.6 mph - N/A   Clear
2:15 PM 95.7 °F 93.4 °F 53.6 °F 24% 29.79 in 10.0 mi East 10.4 mph - N/A   Clear
2:35 PM 97.0 °F - 50.2 °F 20% 29.78 in 10.0 mi East 3.5 mph 18.4 mph N/A   Clear
2:55 PM 97.7 °F - 52.0 °F 21% 29.77 in 10.0 mi East 8.1 mph - N/A   Clear
3:15 PM 97.5 °F - 51.6 °F 21% 29.77 in 10.0 mi SE 5.8 mph - N/A   Clear
3:35 PM 98.2 °F - 50.2 °F 20% 29.76 in 10.0 mi East 4.6 mph - N/A   Clear
3:55 PM 99.5 °F - 52.3 °F 20% 29.76 in 10.0 mi East 9.2 mph - N/A   Clear
4:15 PM 98.4 °F - 50.4 °F 20% 29.75 in 10.0 mi East 10.4 mph 18.4 mph N/A   Clear
4:35 PM 99.0 °F - 49.1 °F 18% 29.75 in 10.0 mi East 11.5 mph 16.1 mph N/A   Clear
4:55 PM 98.8 °F - 47.5 °F 17% 29.74 in 10.0 mi East 10.4 mph - N/A   Clear
5:15 PM 98.2 °F - 49.1 °F 19% 29.74 in 10.0 mi East 13.8 mph 17.3 mph N/A   Clear
5:35 PM 98.2 °F - 46.4 °F 17% 29.73 in 10.0 mi East 9.2 mph - N/A   Clear
5:55 PM 98.2 °F - 45.9 °F 17% 29.72 in 10.0 mi ESE 10.4 mph 18.4 mph N/A   Clear
6:15 PM 98.1 °F - 44.8 °F 16% 29.72 in 10.0 mi East 11.5 mph - N/A   Clear
6:35 PM 97.7 °F - 45.3 °F 17% 29.72 in 10.0 mi ESE 8.1 mph - N/A   Clear
6:55 PM 97.2 °F - 47.3 °F 18% 29.72 in 10.0 mi East 8.1 mph - N/A   Clear
7:15 PM 95.9 °F - 52.9 °F 23% 29.72 in 10.0 mi East 10.4 mph - N/A   Clear
7:35 PM 95.0 °F - 51.1 °F 22% 29.72 in 10.0 mi East 11.5 mph 17.3 mph N/A   Clear
7:55 PM 94.3 °F - 49.6 °F 22% 29.73 in 10.0 mi East 11.5 mph - N/A   Clear
8:15 PM 92.8 °F - 50.4 °F 23% 29.74 in 10.0 mi East 9.2 mph - N/A   Clear
8:35 PM 91.2 °F 92.2 °F 62.8 °F 39% 29.75 in 10.0 mi East 15.0 mph 21.9 mph N/A   Clear
8:55 PM 89.6 °F 91.1 °F 64.2 °F 43% 29.75 in 10.0 mi East 15.0 mph 23.0 mph N/A   Clear
9:15 PM 88.0 °F 89.6 °F 64.8 °F 46% 29.77 in 10.0 mi East 17.3 mph 25.3 mph N/A   Clear
9:35 PM 86.5 °F 88.4 °F 65.5 °F 49% 29.77 in 10.0 mi East 18.4 mph 21.9 mph N/A   Clear
9:55 PM 85.3 °F 87.6 °F 66.2 °F 53% 29.77 in 10.0 mi ESE 13.8 mph 21.9 mph N/A   Clear
10:15 PM 84.4 °F 86.8 °F 66.4 °F 55% 29.78 in 10.0 mi East 12.7 mph 21.9 mph N/A   Clear
10:35 PM 83.7 °F 86.0 °F 66.6 °F 56% 29.78 in 10.0 mi ESE 13.8 mph 18.4 mph N/A   Clear
10:55 PM 82.8 °F 85.1 °F 66.7 °F 58% 29.78 in 10.0 mi ESE 12.7 mph 19.6 mph N/A   Clear
11:15 PM 82.4 °F 85.0 °F 67.1 °F 60% 29.78 in 10.0 mi ESE 11.5 mph 19.6 mph N/A   Clear
11:35 PM 81.9 °F 84.4 °F 67.3 °F 61% 29.78 in 10.0 mi SE 11.5 mph 20.7 mph N/A   Clear
11:55 PM 81.1 °F 83.9 °F 68.0 °F 64% 29.79 in 10.0 mi SE 8.1 mph 17.3 mph N/A   Clear